This is the latest recevied weather packets stored in our database for station/object N7ZEF. If no packets are shown the sender has not sent any weather packets the latest 10 day(s).
| Time | Temp. | Humidity | Pressure | Rain* | Wind** | Luminosity | Snow |
|---|---|---|---|---|---|---|---|
| 1778016462 | 3.33° C | 75% | 1012.7 hPa | 0 mm | - | - | - |
| 1778015861 | 2.78° C | 77% | 1012.8 hPa | 0 mm | - | - | - |
| 1778015260 | 2.78° C | 81% | 1013.1 hPa | 0 mm | - | - | - |
| 1778014658 | 2.78° C | 84% | 1013 hPa | 0 mm | - | - | - |
| 1778014057 | 3.33° C | 81% | 1013.1 hPa | 0 mm | - | - | - |
| 1778013455 | 2.78° C | 82% | 1013.2 hPa | 0 mm | - | - | - |
| 1778012854 | 2.78° C | 80% | 1013.3 hPa | 0 mm | - | - | - |
| 1778012253 | 2.78° C | 83% | 1013.3 hPa | 0 mm | - | - | - |
| 1778011651 | 2.78° C | 83% | 1013.5 hPa | 0 mm | - | - | - |
| 1778011050 | 2.78° C | 82% | 1013.3 hPa | 0 mm | - | - | - |
| 1778010450 | 2.78° C | 83% | 1013.3 hPa | 0 mm | - | - | - |
| 1778009847 | 2.78° C | 84% | 1013.3 hPa | 0 mm | - | - | - |
| 1778009246 | 2.78° C | 87% | 1013.3 hPa | 0 mm | - | - | - |
| 1778008644 | 2.78° C | 87% | 1013.5 hPa | 0 mm | - | - | - |
| 1778008043 | 2.78° C | 88% | 1013.5 hPa | 0 mm | - | - | - |
| 1778007442 | 2.78° C | 91% | 1013.5 hPa | 0 mm | - | - | - |
| 1778006840 | 2.78° C | 93% | 1013.7 hPa | 0.76 mm | - | - | - |
| 1778006239 | 2.78° C | 96% | 1013.7 hPa | 0.76 mm | - | - | - |
| 1778005637 | 2.22° C | 96% | 1013.7 hPa | 0.76 mm | - | - | - |
| 1778005036 | 2.22° C | 98% | 1013.6 hPa | 0.76 mm | - | - | - |
| 1778004435 | 2.22° C | 99% | 1013.8 hPa | 0.76 mm | - | - | - |
| 1778003833 | 2.22° C | 99% | 1013.8 hPa | 0.76 mm | - | - | - |
| 1778003232 | 2.22° C | 99% | 1013.8 hPa | 0.25 mm | - | - | - |
| 1778002631 | 2.22° C | 100% | 1013.8 hPa | 0.25 mm | - | - | - |
| 1778002029 | 1.67° C | 100% | 1014 hPa | 0.25 mm | - | - | - |
* Rain latest hour (hover to see other rain measurements)
** Current wind speed in m/s (hover to see current wind gust speed)